GW6119 Weather Reports


time (UTC)temp
C
wind
direction
speed
KPH
gust
KPH
rain 1hr
cm
rain 24hr
cm
rain mn
cm
humidity
%
barometer
mb
20260510043721 9 151 0.0 0.0 0.00 0.00 0.00 81 1012.5
20260510043219 9 157 0.0 0.0 0.00 0.00 0.00 81 1012.5
20260510042716 9 156 0.0 0.0 0.00 0.00 0.00 79 1012.5
20260510042212 10 173 0.0 0.0 0.00 0.00 0.00 77 1012.4
20260510041709 10 163 0.0 0.0 0.00 0.00 0.00 76 1012.4
20260510041206 10 169 0.0 0.0 0.00 0.00 0.00 74 1012.4
20260510040703 10 148 0.0 0.0 0.00 0.00 0.00 77 1012.4
20260510040200 10 156 0.0 0.0 0.00 0.00 0.00 77 1012.5
20260510035655 10 154 0.0 0.0 0.00 0.00 0.00 76 1012.5
20260510035151 10 132 0.0 0.0 0.00 0.00 0.00 77 1012.5
20260510034647 10 149 0.0 0.0 0.00 0.00 0.00 78 1012.5
20260510034145 10 151 0.0 0.0 0.00 0.00 0.00 79 1012.5
20260510033641 10 157 0.0 0.0 0.00 0.00 0.00 78 1012.5
20260510033139 10 154 0.0 0.0 0.00 0.00 0.00 78 1012.5
20260510032635 10 148 0.0 0.0 0.00 0.00 0.00 78 1012.2
20260510032130 10 154 0.0 0.0 0.00 0.00 0.00 79 1012.3
20260510031625 10 137 0.0 0.0 0.00 0.00 0.00 78 1012.2
20260510031123 10 154 0.0 0.0 0.00 0.00 0.00 78 1012.3
20260510030617 10 150 0.0 0.0 0.00 0.00 0.00 79 1012.1
20260510030115 10 155 0.0 0.0 0.00 0.00 0.00 80 1012.2
20260510025612 10 169 0.0 0.0 0.00 0.00 0.00 80 1012.1
20260510025109 10 152 0.0 0.0 0.00 0.00 0.00 78 1012.0
20260510024606 10 154 0.0 0.0 0.00 0.00 0.00 79 1012.0
20260510024102 10 151 0.0 0.0 0.00 0.00 0.00 79 1012.0
20260510023558 11 161 0.0 0.0 0.00 0.00 0.00 77 1012.0
20260510023056 11 165 0.0 0.0 0.00 0.00 0.00 77 1011.9
20260510022555 11 152 0.0 0.0 0.00 0.00 0.00 77 1011.6
20260510022055 11 142 0.0 1.6 0.00 0.00 0.00 76 1011.5
20260510021552 11 134 0.0 1.6 0.00 0.00 0.00 75 1011.5
20260510021049 12 107 1.6 3.2 0.00 0.00 0.00 74 1011.4
20260510020544 12 174 0.0 1.6 0.00 0.00 0.00 73 1011.5
20260510020040 11 92 3.2 3.2 0.00 0.00 0.00 74 1011.3
20260510015536 11 210 3.2 3.2 0.00 0.00 0.00 73 1011.3
20260510015032 12 154 0.0 0.0 0.00 0.00 0.00 74 1011.1
20260510014528 12 172 0.0 3.2 0.00 0.00 0.00 74 1011.1
20260510014026 12 163 0.0 0.0 0.00 0.00 0.00 73 1010.8
20260510013520 12 177 0.0 3.2 0.00 0.00 0.00 70 1010.9
20260510013017 13 154 0.0 0.0 0.00 0.00 0.00 68 1010.9
20260510012516 13 155 0.0 0.0 0.00 0.00 0.00 66 1010.8
20260510012013 13 121 0.0 1.6 0.00 0.00 0.00 66 1010.5
20260510011507 13 137 0.0 0.0 0.00 0.00 0.00 65 1010.5
20260510011003 13 124 1.6 1.6 0.00 0.00 0.00 65 1010.6
20260510010500 13 158 0.0 0.0 0.00 0.00 0.00 66 1010.5
20260510005957 13 101 1.6 3.2 0.00 0.00 0.00 63 1010.3
20260510005453 13 155 0.0 1.6 0.00 0.00 0.00 64 1010.3
20260510004951 14 154 1.6 1.6 0.00 0.00 0.00 64 1010.2
20260510004447 15 157 0.0 1.6 0.00 0.00 0.00 61 1010.1
20260510003946 15 157 0.0 1.6 0.00 0.00 0.00 59 1010.0
20260510003442 15 117 1.6 4.8 0.00 0.00 0.00 59 1009.9
20260510002942 15 151 0.0 0.0 0.00 0.00 0.00 59 1009.7
20260510002439 16 149 0.0 1.6 0.00 0.00 0.00 57 1009.6
20260510001935 16 121 0.0 1.6 0.00 0.00 0.00 56 1009.4
20260510001433 16 157 0.0 0.0 0.00 0.00 0.00 56 1009.4
20260510000930 17 156 0.0 1.6 0.00 0.00 0.00 54 1009.5
20260510000427 18 79 3.2 3.2 0.00 0.00 0.00 48 1009.4
20260509235923 19 93 1.6 3.2 0.00 0.00 0.00 47 1009.3
20260509235420 20 132 1.6 3.2 0.00 0.00 0.00 46 1009.3
20260509234916 21 123 0.0 0.0 0.00 0.00 0.00 43 1009.4
20260509234413 22 169 0.0 0.0 0.00 0.00 0.00 38 1009.3
20260509233911 22 176 0.0 0.0 0.00 0.00 0.00 37 1009.2
20260509233408 21 180 0.0 4.8 0.00 0.00 0.00 38 1009.4
20260509232904 21 204 3.2 6.4 0.00 0.00 0.00 37 1009.3
20260509232402 21 248 6.4 6.4 0.00 0.00 0.00 36 1009.2
20260509231858 22 222 4.8 6.4 0.00 0.00 0.00 36 1009.0
20260509231355 22 252 8.0 14.5 0.00 0.00 0.00 35 1009.0
20260509230853 22 250 6.4 9.7 0.00 0.00 0.00 37 1008.9
20260509230349 22 221 3.2 9.7 0.00 0.00 0.00 37 1009.0
20260509225845 22 227 1.6 3.2 0.00 0.00 0.00 35 1008.9
20260509225342 22 237 3.2 4.8 0.00 0.00 0.00 35 1008.9
20260509224838 22 232 4.8 6.4 0.00 0.00 0.00 35 1008.9
20260509224334 22 269 8.0 9.7 0.00 0.00 0.00 35 1008.9
20260509223831 22 256 9.7 12.9 0.00 0.00 0.00 34 1008.8
20260509223327 22 173 6.4 9.7 0.00 0.00 0.00 35 1008.9
20260509222825 22 255 9.7 14.5 0.00 0.00 0.00 34 1009.0
20260509222320 22 253 6.4 12.9 0.00 0.00 0.00 34 1008.9
20260509221815 22 272 6.4 9.7 0.00 0.00 0.00 34 1008.9
20260509221314 22 228 8.0 12.9 0.00 0.00 0.00 33 1008.8
20260509220814 22 224 6.4 11.3 0.00 0.00 0.00 34 1008.8
20260509220310 22 213 6.4 12.9 0.00 0.00 0.00 34 1009.0
20260509215806 22 257 8.0 11.3 0.00 0.00 0.00 35 1009.0
20260509215305 22 222 6.4 14.5 0.00 0.00 0.00 35 1008.8
20260509214759 22 249 9.7 12.9 0.00 0.00 0.00 36 1008.8
20260509214257 22 239 6.4 6.4 0.00 0.00 0.00 35 1008.6
20260509213754 22 203 3.2 11.3 0.00 0.00 0.00 36 1008.7
20260509213249 22 219 3.2 9.7 0.00 0.00 0.00 35 1008.7
20260509212747 22 206 1.6 4.8 0.00 0.00 0.00 36 1008.4
20260509212244 22 187 6.4 14.5 0.00 0.00 0.00 36 1008.4
20260509211739 22 254 9.7 11.3 0.00 0.00 0.00 35 1008.5
20260509211236 22 249 9.7 12.9 0.00 0.00 0.00 35 1008.4
20260509210732 22 232 6.4 12.9 0.00 0.00 0.00 33 1008.5
20260509210231 22 228 6.4 11.3 0.00 0.00 0.00 34 1008.3
20260509205730 22 243 8.0 14.5 0.00 0.00 0.00 34 1008.3
20260509205230 22 214 6.4 16.1 0.00 0.00 0.00 33 1008.4
20260509204726 22 241 6.4 9.7 0.00 0.00 0.00 36 1008.3
20260509204223 22 248 8.0 9.7 0.00 0.00 0.00 35 1008.3
20260509203718 22 210 3.2 3.2 0.00 0.00 0.00 35 1008.3
20260509203217 22 144 1.6 14.5 0.00 0.00 0.00 38 1008.2
20260509202712 23 169 1.6 14.5 0.00 0.00 0.00 39 1008.2
20260509202207 23 179 1.6 4.8 0.00 0.00 0.00 42 1008.1
20260509201703 23 116 3.2 9.7 0.00 0.00 0.00 39 1008.3
20260509201200 23 157 3.2 11.3 0.00 0.00 0.00 41 1008.0
20260509200657 23 170 4.8 12.9 0.00 0.00 0.00 40 1008.4
20260509200157 23 176 3.2 12.9 0.00 0.00 0.00 38 1008.2
20260509195653 22 162 6.4 11.3 0.00 0.00 0.00 39 1008.2
20260509195149 22 236 6.4 14.5 0.00 0.00 0.00 39 1008.3
20260509194648 22 210 6.4 11.3 0.00 0.00 0.00 37 1008.4
20260509194146 22 140 3.2 11.3 0.00 0.00 0.00 38 1008.4
20260509193641 22 235 3.2 9.7 0.00 0.00 0.00 39 1008.5
20260509193137 23 219 4.8 11.3 0.00 0.00 0.00 37 1008.7
20260509192634 23 249 8.0 16.1 0.00 0.00 0.00 39 1008.6
20260509192130 22 231 4.8 9.7 0.00 0.00 0.00 36 1008.7
20260509191629 22 137 9.7 20.9 0.00 0.00 0.00 39 1008.9
20260509191126 22 234 9.7 12.9 0.00 0.00 0.00 37 1008.8
20260509190622 23 226 8.0 24.1 0.00 0.00 0.00 36 1008.8
20260509190120 23 247 6.4 14.5 0.00 0.00 0.00 37 1008.8
20260509185617 23 144 8.0 22.5 0.00 0.00 0.00 38 1009.0
20260509185113 23 245 9.7 11.3 0.00 0.00 0.00 38 1009.0
20260509184612 22 251 8.0 11.3 0.00 0.00 0.00 41 1008.9
20260509184108 22 195 6.4 17.7 0.00 0.00 0.00 43 1009.2
20260509183604 22 136 6.4 9.7 0.00 0.00 0.00 40 1009.2
20260509183059 22 217 8.0 16.1 0.00 0.00 0.00 42 1009.3
20260509182556 23 233 12.9 16.1 0.00 0.00 0.00 38 1009.3
20260509182053 23 124 6.4 16.1 0.00 0.00 0.00 38 1009.5
20260509181552 23 237 3.2 12.9 0.00 0.00 0.00 40 1009.5
20260509181048 22 208 4.8 12.9 0.00 0.00 0.00 40 1009.6
20260509180544 22 249 4.8 12.9 0.00 0.00 0.00 42 1009.7
20260509180041 22 161 6.4 11.3 0.00 0.00 0.00 44 1009.8
20260509175537 21 171 6.4 6.4 0.00 0.00 0.00 46 1010.0
20260509175034 21 129 8.0 14.5 0.00 0.00 0.00 45 1009.9
20260509174530 21 144 9.7 11.3 0.00 0.00 0.00 47 1010.2
20260509174026 21 167 1.6 14.5 0.00 0.00 0.00 52 1010.2
20260509173520 20 213 1.6 4.8 0.00 0.00 0.00 49 1010.3
20260509173016 20 168 1.6 4.8 0.00 0.00 0.00 51 1010.3
20260509172514 20 168 1.6 6.4 0.00 0.00 0.00 49 1010.2
20260509172009 20 144 1.6 4.8 0.00 0.00 0.00 50 1010.1
20260509171506 20 158 0.0 4.8 0.00 0.00 0.00 49 1010.4
20260509171002 20 134 6.4 6.4 0.00 0.00 0.00 49 1010.3
20260509170458 20 157 3.2 3.2 0.00 0.00 0.00 51 1010.4
20260509165954 20 159 3.2 6.4 0.00 0.00 0.00 49 1010.4
20260509165453 20 179 3.2 3.2 0.00 0.00 0.00 48 1010.6
20260509164949 20 152 0.0 3.2 0.00 0.00 0.00 49 1010.7
20260509164444 19 168 3.2 3.2 0.00 0.00 0.00 48 1010.5
20260509163941 19 150 0.0 6.4 0.00 0.00 0.00 48 1010.6
20260509163438 20 170 6.4 9.7 0.00 0.00 0.00 48 1010.7
20260509162937 20 174 0.0 1.6 0.00 0.00 0.00 53 1010.7
20260509162437 20 240 4.8 6.4 0.00 0.00 0.00 50 1010.6
20260509161932 20 163 6.4 9.7 0.00 0.00 0.00 47 1010.5
20260509161428 19 165 9.7 11.3 0.00 0.00 0.00 50 1010.4
20260509160924 20 202 1.6 4.8 0.00 0.00 0.00 48 1010.8
20260509160420 19 181 1.6 14.5 0.00 0.00 0.00 51 1010.5
20260509155915 19 170 1.6 6.4 0.00 0.00 0.00 48 1010.7
20260509155412 19 186 3.2 6.4 0.00 0.00 0.00 49 1010.7
20260509154909 19 185 3.2 6.4 0.00 0.00 0.00 49 1010.7
20260509154405 19 211 1.6 6.4 0.00 0.00 0.00 51 1010.6
20260509153902 19 184 3.2 6.4 0.00 0.00 0.00 48 1010.8
20260509153359 19 164 3.2 9.7 0.00 0.00 0.00 48 1010.6
20260509152856 19 146 4.8 6.4 0.00 0.00 0.00 46 1010.4
20260509152352 20 126 6.4 11.3 0.00 0.00 0.00 46 1010.3
20260509151849 20 160 1.6 6.4 0.00 0.00 0.00 46 1010.5
20260509151345 20 192 1.6 6.4 0.00 0.00 0.00 47 1010.3
20260509150844 20 198 1.6 4.8 0.00 0.00 0.00 49 1010.4
20260509150341 20 176 0.0 3.2 0.00 0.00 0.00 48 1010.3
20260509145839 19 173 0.0 1.6 0.00 0.00 0.00 45 1010.4
20260509145338 20 213 4.8 9.7 0.00 0.00 0.00 48 1010.3
20260509144835 19 227 3.2 4.8 0.00 0.00 0.00 50 1010.4
20260509144332 19 231 8.0 11.3 0.00 0.00 0.00 48 1010.6
20260509143829 19 222 8.0 9.7 0.00 0.00 0.00 49 1010.5
20260509143327 19 224 6.4 12.9 0.00 0.00 0.00 51 1010.4
20260509142822 19 207 1.6 6.4 0.00 0.00 0.00 49 1010.4
20260509142319 18 205 4.8 6.4 0.00 0.00 0.00 53 1010.5
20260509141814 18 162 1.6 6.4 0.00 0.00 0.00 54 1010.7
20260509141312 18 206 8.0 11.3 0.00 0.00 0.00 51 1010.8
20260509140808 18 157 8.0 12.9 0.00 0.00 0.00 53 1011.0
20260509140305 17 197 3.2 9.7 0.00 0.00 0.00 55 1011.0
20260509135803 17 186 1.6 3.2 0.00 0.00 0.00 56 1011.2
20260509135300 16 226 4.8 4.8 0.00 0.00 0.00 55 1011.4
20260509134758 16 223 1.6 4.8 0.00 0.00 0.00 55 1011.3
20260509134255 16 183 1.6 6.4 0.00 0.00 0.00 55 1011.4
20260509133752 16 167 3.2 12.9 0.00 0.00 0.00 56 1011.6
20260509133248 16 189 3.2 9.7 0.00 0.00 0.00 57 1011.6
20260509132747 16 78 3.2 4.8 0.00 0.00 0.00 58 1011.6
20260509132246 16 196 3.2 9.7 0.00 0.00 0.00 56 1011.7
20260509131742 15 127 3.2 6.4 0.00 0.00 0.00 54 1011.6
20260509131238 15 163 6.4 11.3 0.00 0.00 0.00 55 1011.7
20260509130735 15 240 1.6 3.2 0.00 0.00 0.00 58 1011.3
20260509130230 15 181 3.2 3.2 0.00 0.00 0.00 58 1011.4
20260509125727 15 177 1.6 6.4 0.00 0.00 0.00 56 1011.4
20260509125224 15 183 4.8 12.9 0.00 0.00 0.00 55 1011.4
20260509124720 15 161 4.8 4.8 0.00 0.00 0.00 56 1011.3
20260509124217 15 245 3.2 12.9 0.00 0.00 0.00 56 1011.3
20260509123716 15 195 1.6 1.6 0.00 0.00 0.00 60 1011.3
20260509123212 15 211 3.2 4.8 0.00 0.00 0.00 57 1011.4
20260509122708 15 185 1.6 3.2 0.00 0.00 0.00 57 1011.3
20260509122205 14 204 4.8 4.8 0.00 0.00 0.00 56 1011.4
20260509121701 14 180 0.0 0.0 0.00 0.00 0.00 56 1011.4
20260509121159 14 203 4.8 9.7 0.00 0.00 0.00 56 1011.6
20260509120657 14 164 0.0 3.2 0.00 0.00 0.00 57 1011.6
20260509120155 13 151 0.0 1.6 0.00 0.00 0.00 56 1011.6
20260509115652 13 163 0.0 1.6 0.00 0.00 0.00 58 1011.5
20260509115149 13 183 1.6 1.6 0.00 0.00 0.00 56 1011.5
20260509114648 13 160 0.0 3.2 0.00 0.00 0.00 56 1011.6
20260509114147 13 167 0.0 1.6 0.00 0.00 0.00 56 1011.5
20260509113644 13 209 1.6 4.8 0.00 0.00 0.00 55 1011.4
20260509113141 13 184 4.8 6.4 0.00 0.00 0.00 54 1011.4
20260509112638 13 212 1.6 3.2 0.00 0.00 0.00 54 1011.4
20260509112135 13 162 0.0 1.6 0.00 0.00 0.00 53 1011.5
20260509111632 13 253 1.6 4.8 0.00 0.00 0.00 55 1011.4
20260509111129 13 159 3.2 6.4 0.00 0.00 0.00 53 1011.4
20260509110626 13 164 3.2 3.2 0.00 0.00 0.00 53 1011.3
20260509110123 13 175 0.0 1.6 0.00 0.00 0.00 54 1011.4
20260509105621 13 188 0.0 1.6 0.00 0.00 0.00 53 1011.4
20260509105119 13 202 1.6 3.2 0.00 0.00 0.00 53 1011.3
20260509104615 13 200 1.6 3.2 0.00 0.00 0.00 54 1011.4
20260509104112 13 164 1.6 3.2 0.00 0.00 0.00 53 1011.4
20260509103610 13 156 0.0 3.2 0.00 0.00 0.00 54 1011.4
20260509103108 13 183 0.0 1.6 0.00 0.00 0.00 53 1011.4
20260509102605 13 192 1.6 3.2 0.00 0.00 0.00 53 1011.3
20260509102102 13 176 0.0 3.2 0.00 0.00 0.00 51 1011.4
20260509101558 13 179 1.6 6.4 0.00 0.00 0.00 51 1011.4
20260509101055 13 171 1.6 6.4 0.00 0.00 0.00 51 1011.4
20260509100552 13 124 3.2 9.7 0.00 0.00 0.00 52 1011.4
20260509100049 13 171 0.0 6.4 0.00 0.00 0.00 51 1011.5
20260509095545 13 162 3.2 4.8 0.00 0.00 0.00 51 1011.6
20260509095043 13 193 0.0 11.3 0.00 0.00 0.00 51 1011.6
20260509094539 13 210 6.4 9.7 0.00 0.00 0.00 50 1011.5
20260509094037 13 168 3.2 11.3 0.00 0.00 0.00 50 1011.4
20260509093535 13 184 3.2 3.2 0.00 0.00 0.00 50 1011.5
20260509093032 13 171 0.0 9.7 0.00 0.00 0.00 51 1011.6
20260509092530 13 145 9.7 12.9 0.00 0.00 0.00 50 1011.5
20260509092029 13 162 8.0 12.9 0.00 0.00 0.00 50 1011.5
20260509091525 13 160 6.4 9.7 0.00 0.00 0.00 50 1011.5
20260509091022 13 189 4.8 11.3 0.00 0.00 0.00 50 1011.7
20260509090519 13 157 3.2 11.3 0.00 0.00 0.00 49 1011.6
20260509090017 13 51 3.2 9.7 0.00 0.00 0.00 49 1011.6
20260509085514 13 154 4.8 6.4 0.00 0.00 0.00 49 1011.7
20260509085010 13 169 0.0 1.6 0.00 0.00 0.00 50 1011.9
20260509084507 13 157 0.0 3.2 0.00 0.00 0.00 50 1011.5
20260509084004 13 174 0.0 3.2 0.00 0.00 0.00 50 1011.9
20260509083501 13 206 3.2 4.8 0.00 0.00 0.00 50 1011.7
20260509082957 13 167 0.0 4.8 0.00 0.00 0.00 50 1011.7
20260509082455 13 179 1.6 6.4 0.00 0.00 0.00 50 1011.9
20260509081952 13 154 0.0 4.8 0.00 0.00 0.00 49 1012.0
20260509081449 13 202 3.2 4.8 0.00 0.00 0.00 49 1011.9
20260509080946 13 176 4.8 6.4 0.00 0.00 0.00 49 1012.0
20260509080445 13 204 3.2 6.4 0.00 0.00 0.00 49 1011.9
20260509075942 13 170 1.6 3.2 0.00 0.00 0.00 50 1012.0
20260509075439 13 159 0.0 3.2 0.00 0.00 0.00 49 1012.1
20260509074937 13 170 0.0 6.4 0.00 0.00 0.00 50 1012.3
20260509074434 13 173 1.6 4.8 0.00 0.00 0.00 49 1012.1
20260509073930 13 170 3.2 4.8 0.00 0.00 0.00 49 1012.1
20260509073427 13 230 0.0 3.2 0.00 0.00 0.00 49 1012.2
20260509072924 13 166 1.6 4.8 0.00 0.00 0.00 48 1012.3
20260509072421 13 209 1.6 4.8 0.00 0.00 0.00 49 1012.3
20260509071917 13 131 1.6 9.7 0.00 0.00 0.00 48 1012.4
20260509071414 13 249 1.6 4.8 0.00 0.00 0.00 48 1012.1
20260509070912 13 229 4.8 6.4 0.00 0.00 0.00 48 1012.3
20260509070408 13 194 1.6 3.2 0.00 0.00 0.00 50 1012.3
20260509065903 13 58 0.0 1.6 0.00 0.00 0.00 49 1012.3
20260509065400 13 210 3.2 6.4 0.00 0.00 0.00 49 1012.4
20260509064856 13 183 0.0 0.0 0.00 0.00 0.00 49 1012.4
20260509064354 13 172 1.6 9.7 0.00 0.00 0.00 48 1012.3
20260509063852 13 137 1.6 4.8 0.00 0.00 0.00 48 1012.6
20260509063347 13 173 0.0 6.4 0.00 0.00 0.00 49 1012.4
20260509062845 13 162 1.6 3.2 0.00 0.00 0.00 50 1012.6
20260509062342 13 166 0.0 3.2 0.00 0.00 0.00 51 1012.6
20260509061839 13 158 0.0 3.2 0.00 0.00 0.00 52 1012.6
20260509061337 13 194 1.6 4.8 0.00 0.00 0.00 52 1012.7
20260509060834 13 192 3.2 3.2 0.00 0.00 0.00 51 1012.8
20260509060331 13 197 0.0 3.2 0.00 0.00 0.00 51 1012.8
20260509055826 13 183 1.6 3.2 0.00 0.00 0.00 52 1012.7
20260509055321 13 166 0.0 1.6 0.00 0.00 0.00 51 1012.9
20260509054819 13 173 1.6 1.6 0.00 0.00 0.00 51 1012.8
20260509054315 13 187 1.6 3.2 0.00 0.00 0.00 50 1012.9
20260509053814 13 163 3.2 6.4 0.00 0.00 0.00 51 1013.0
20260509053310 13 164 3.2 3.2 0.00 0.00 0.00 51 1013.0
20260509052809 13 167 4.8 6.4 0.00 0.00 0.00 50 1012.9
20260509052307 13 163 0.0 3.2 0.00 0.00 0.00 50 1012.9
20260509051804 13 205 1.6 3.2 0.00 0.00 0.00 50 1012.9
20260509051302 13 159 0.0 4.8 0.00 0.00 0.00 50 1012.9
20260509050758 13 169 1.6 3.2 0.00 0.00 0.00 50 1013.0
20260509050254 13 163 0.0 11.3 0.00 0.00 0.00 50 1013.2
20260509045752 13 179 0.0 6.4 0.00 0.00 0.00 50 1013.1
20260509045248 13 247 8.0 12.9 0.00 0.00 0.00 50 1013.0
20260509044746 13 170 3.2 6.4 0.00 0.00 0.00 51 1012.7
20260509044243 13 130 3.2 3.2 0.00 0.00 0.00 50 1013.0